1485468000.94,43654,9.31,74014.0,-7.37,-36.67,-36.91,0,*5A
1485468002.19,43655,9.31,74010.8,-7.39,-36.55,-36.55,0,*5C
1485468003.4,43656,9.31,74008.5,-7.37,-36.55,-36.85,0,*5C
1485468004.66,43657,9.31,74008.8,-7.39,-36.55,-36.91,0,*56
1485468005.9,43658,9.31,74006.5,-7.39,-36.55,-36.67,0,*50
1485468007.12,43659,9.31,74008.0,-7.37,-36.43,-36.67,0,*58
1485468008.38,43660,9.31,74014.5,-7.39,-36.49,-36.73,0,*53
1485468009.59,43661,9.31,74008.5,-7.37,-36.55,-36.73,0,*51
1485468010.8,43662,9.31,74004.0,-7.37,-36.55,-36.85,0,*5B
1485468012.03,43663,9.31,74006.0,-7.37,-36.67,-36.91,0,*5E
1485468013.27,43664,9.31,74006.8,-7.37,-36.73,-36.91,0,*5C
1485468014.53,43665,9.31,74010.8,-7.39,-36.55,-36.91,0,*57
1485468015.74,43666,9.31,74012.0,-7.37,-36.55,-37.03,0,*50
1485468017.01,43667,9.31,74004.3,-7.39,-36.67,-36.91,0,*54
1485468018.24,43668,9.31,74006.0,-7.39,-36.73,-37.03,0,*54
1485468019.48,43669,9.31,74010.5,-7.39,-36.67,-37.03,0,*50
1485468020.69,43670,9.31,74010.3,-7.37,-36.67,-36.85,0,*59
1485468021.9,43671,9.31,74008.5,-7.37,-36.55,-36.85,0,*59
1485468023.13,43672,9.31,74006.5,-7.37,-36.67,-37.09,0,*5E
1485468024.37,43673,9.31,74010.8,-7.37,-36.67,-36.91,0,*5F
1485468025.61,43674,9.31,74008.0,-7.37,-36.73,-37.09,0,*5D
1485468026.82,43675,9.31,74006.5,-7.37,-36.85,-37.03,0,*5F
1485468028.08,43676,9.31,74008.8,-7.39,-36.73,-37.09,0,*51
1485468029.32,43677,9.31,74004.0,-7.37,-36.85,-37.09,0,*57
1485468030.53,43678,9.31,74010.0,-7.37,-36.67,-36.85,0,*51
1485468031.77,43679,9.31,74008.5,-7.37,-36.85,-37.09,0,*59
1485468033.0,43680,9.31,74008.5,-7.37,-37.03,-37.21,0,*5A
1485468034.27,43681,9.31,74008.3,-7.37,-36.91,-37.09,0,*5B
1485468035.48,43682,9.31,74012.3,-7.37,-36.73,-37.03,0,*5E
1485468036.71,43683,9.31,74010.0,-7.35,-36.55,-36.85,0,*56
1485468037.98,43684,9.31,74008.0,-7.39,-36.55,-36.91,0,*58
1485468039.21,43685,9.31,74010.5,-7.37,-36.73,-36.91,0,*53
1485468040.48,43686,9.31,74012.0,-7.39,-36.85,-37.09,0,*57
1485468041.71,43687,9.31,74014.5,-7.37,-37.03,-37.09,0,*57
1485468043.0,43688,9.31,74014.8,-7.39,-37.09,-37.21,0,*56
1485468044.27,43689,9.31,74010.5,-7.37,-36.91,-37.21,0,*59
1485468045.48,43690,9.31,74010.8,-7.37,-36.67,-37.03,0,*58
1485468046.71,43691,9.31,74014.0,-7.37,-36.67,-36.91,0,*53
1485468047.92,43692,9.31,74014.0,-7.37,-36.73,-37.03,0,*5F
1485468049.19,43693,9.31,74008.3,-7.39,-36.67,-36.91,0,*5F
1485468050.42,43694,9.31,74010.0,-7.39,-36.73,-37.03,0,*57
1485468051.63,43695,9.31,74014.3,-7.37,-36.55,-36.85,0,*53
1485468052.84,43696,9.31,74008.5,-7.37,-36.73,-37.03,0,*5B
1485468054.08,43697,9.31,74008.0,-7.37,-36.55,-36.91,0,*54
1485468055.32,43698,9.31,74010.5,-7.37,-36.85,-37.09,0,*56
1485468056.52,43699,9.31,74010.5,-7.37,-37.03,-37.27,0,*54
1485468057.76,43700,9.31,74010.0,-7.37,-36.91,-37.03,0,*59
1485468059.0,43701,9.31,74008.3,-7.39,-36.67,-37.03,0,*5F
1485468060.23,43702,9.31,74004.3,-7.37,-36.67,-36.91,0,*58
1485468061.47,43703,9.31,74008.5,-7.37,-36.67,-36.91,0,*59
1485468062.73,43704,9.31,74008.8,-7.37,-36.91,-37.09,0,*57
1485468063.97,43705,9.31,74014.8,-7.39,-36.73,-37.03,0,*5E
1485468065.21,43706,9.31,74008.8,-7.39,-36.73,-37.03,0,*5D
1485468066.45,43707,9.31,74010.5,-7.39,-36.73,-37.03,0,*5C
1485468067.69,43708,9.31,74010.3,-7.37,-36.73,-37.09,0,*57
1485468068.92,43709,9.31,74012.3,-7.37,-36.85,-37.09,0,*5F
1485468070.19,43710,9.31,74014.5,-7.39,-36.73,-37.09,0,*50
1485468071.43,43711,9.31,74008.3,-7.37,-36.67,-37.09,0,*5A
1485468072.72,43712,9.31,74014.8,-7.39,-36.91,-37.21,0,*54
1485468073.95,43713,9.31,74012.0,-7.39,-36.67,-37.03,0,*5C
1485468075.16,43714,9.31,74014.0,-7.37,-36.55,-37.03,0,*54
1485468076.45,43715,9.31,74014.8,-7.39,-36.91,-37.09,0,*59
1485468077.72,43716,9.31,74018.3,-7.37,-36.91,-37.21,0,*5E
1485468078.98,43717,9.31,74014.0,-7.39,-36.73,-37.09,0,*57
1485468080.22,43718,9.31,74012.8,-7.37,-36.73,-37.09,0,*56
1485468081.46,43719,9.31,74014.0,-7.39,-36.85,-37.03,0,*5A
1485468082.67,43720,9.31,74014.3,-7.37,-36.73,-37.03,0,*57
1485468083.94,43721,9.31,74014.8,-7.39,-36.85,-37.09,0,*5B
1485468085.22,43722,9.31,74010.0,-7.39,-36.91,-37.09,0,*5D
1485468086.49,43723,9.38,74010.5,-7.37,-36.91,-37.09,0,*52
1485468087.72,43724,9.31,74010.5,-7.37,-36.85,-37.09,0,*50
1485468088.94,43725,9.31,74008.8,-7.37,-36.73,-37.03,0,*52
1485468090.17,43726,9.31,74012.3,-7.37,-36.67,-36.91,0,*5E
1485468091.41,43727,9.31,74010.8,-7.37,-36.73,-37.09,0,*5A
1485468092.62,43728,9.31,74008.8,-7.37,-36.55,-36.85,0,*54
1485468093.88,43729,9.31,74008.3,-7.39,-36.73,-37.09,0,*5A
1485468095.15,43730,9.31,74010.3,-7.37,-36.91,-37.21,0,*5A
1485468096.38,43731,9.31,74014.8,-7.39,-36.73,-37.03,0,*59
1485468097.62,43732,9.31,74008.5,-7.39,-36.67,-37.03,0,*5F
1485468098.86,43733,9.31,74012.3,-7.37,-36.67,-36.91,0,*5A
1485468100.12,43734,9.31,74010.0,-7.39,-36.85,-37.09,0,*5F
1485468101.36,43735,9.31,74010.3,-7.39,-36.73,-37.03,0,*5D
1485468102.57,43736,9.31,74010.0,-7.37,-36.85,-37.03,0,*59
1485468103.79,43737,9.31,74014.5,-7.37,-36.73,-37.03,0,*51
1485468105.02,43738,9.31,74010.0,-7.37,-36.85,-37.09,0,*5D
1485468106.24,43739,9.31,74014.8,-7.37,-36.85,-37.03,0,*56
1485468107.5,43740,9.31,74006.0,-7.39,-36.73,-36.91,0,*55
1485468108.74,43741,9.31,74014.5,-7.37,-36.73,-37.09,0,*5A
1485468110.0,43742,9.31,74010.5,-7.37,-36.91,-37.21,0,*5F
1485468111.24,43743,9.31,74010.0,-7.37,-36.85,-37.09,0,*51
1485468112.48,43744,9.31,74012.3,-7.39,-36.73,-37.03,0,*5B
1485468113.72,43745,9.31,74008.3,-7.37,-36.85,-37.09,0,*57
1485468114.95,43746,9.31,74010.0,-7.37,-36.85,-37.09,0,*54
1485468116.16,43747,9.31,74008.0,-7.37,-36.67,-37.03,0,*53
1485468117.43,43748,9.31,74016.0,-7.39,-36.67,-36.91,0,*58
1485468118.63,43749,9.31,74010.8,-7.37,-36.55,-36.85,0,*53
1485468119.85,43750,9.31,74012.8,-7.37,-36.67,-37.03,0,*55
1485468121.05,43751,9.31,74012.5,-7.37,-36.55,-36.85,0,*5A
1485468122.27,43752,9.31,74008.8,-7.37,-36.85,-37.03,0,*5B
1485468123.51,43753,9.31,74008.5,-7.39,-36.73,-37.03,0,*5D
1485468124.74,43754,9.31,74004.5,-7.39,-36.73,-37.03,0,*5A
1485468126.01,43755,9.31,74006.5,-7.39,-36.73,-37.09,0,*51
1485468127.25,43756,9.31,74006.0,-7.39,-36.85,-37.03,0,*51
1485468128.46,43757,9.31,74008.0,-7.37,-36.67,-37.03,0,*52
1485468129.69,43758,9.31,74008.5,-7.37,-36.67,-36.91,0,*57
1485468130.93,43759,9.31,74010.0,-7.37,-36.73,-37.09,0,*53
1485468132.17,43760,9.31,74010.0,-7.37,-36.85,-37.09,0,*50
1485468133.4,43761,9.31,74010.0,-7.37,-36.55,-36.91,0,*5C
1485468134.64,43762,9.31,74008.3,-7.37,-37.03,-37.21,0,*57
1485468135.85,43763,9.31,74008.0,-7.37,-37.03,-37.27,0,*50
1485468137.09,43764,9.31,74010.0,-7.37,-37.03,-37.21,0,*51
1485468138.37,43765,9.31,74010.8,-7.39,-36.91,-37.09,0,*5E
1485468139.59,43766,9.31,74012.8,-7.37,-36.73,-37.03,0,*55
1485468140.8,43767,9.31,74008.5,-7.37,-36.85,-37.03,0,*5D
1485468142.01,43768,9.31,74008.8,-7.37,-36.85,-37.03,0,*52
1485468143.27,43769,9.31,74010.8,-7.37,-36.91,-37.09,0,*5C
1485468144.54,43770,9.31,74010.3,-7.39,-36.73,-37.09,0,*56
1485468145.78,43771,9.31,74014.3,-7.37,-36.85,-37.09,0,*50
1485468147.01,43772,9.31,74010.0,-7.37,-36.91,-37.03,0,*5C
1485468148.25,43773,9.31,74008.8,-7.37,-37.03,-37.09,0,*5D
1485468149.49,43774,9.31,74006.8,-7.37,-36.85,-37.09,0,*55
1485468150.7,43775,9.31,74014.8,-7.37,-36.73,-37.03,0,*57
1485468151.91,43776,9.31,74012.3,-7.37,-36.85,-37.03,0,*5D
1485468153.12,43777,9.31,74008.0,-7.37,-36.73,-37.03,0,*55
1485468154.39,43778,9.31,74012.0,-7.39,-36.85,-37.09,0,*57
1485468155.63,43779,9.31,74008.3,-7.37,-36.85,-37.09,0,*58
1485468156.86,43780,9.38,74016.3,-7.39,-36.85,-37.03,0,*5A
1485468158.13,43781,9.31,74014.3,-7.39,-37.09,-37.27,0,*58
1485468159.39,43782,9.31,74014.8,-7.37,-37.09,-37.39,0,*5A
1485468160.66,43783,9.31,74012.8,-7.37,-37.21,-37.39,0,*51
1485468161.95,43784,9.31,74010.3,-7.39,-36.91,-37.21,0,*5B
1485468163.21,43785,9.31,74010.3,-7.39,-37.03,-37.21,0,*50
1485468164.45,43786,9.31,74008.8,-7.39,-36.73,-37.03,0,*55
1485468165.66,43787,9.31,74010.5,-7.37,-36.73,-37.03,0,*5A
1485468166.95,43788,9.31,74012.8,-7.39,-36.91,-37.09,0,*5D
1485468168.22,43789,9.31,74010.3,-7.37,-36.91,-37.21,0,*58
1485468169.45,43790,9.31,74014.3,-7.37,-36.73,-36.91,0,*56
1485468170.72,43791,9.31,74012.8,-7.39,-36.85,-37.09,0,*50
1485468171.98,43792,9.31,74012.8,-7.39,-36.91,-37.03,0,*5C
1485468173.24,43793,9.31,74008.8,-7.37,-36.91,-37.09,0,*59
1485468174.5,43794,9.31,74010.3,-7.37,-36.91,-37.09,0,*5E
1485468175.76,43795,9.31,74012.5,-7.37,-36.91,-37.09,0,*5F
1485468177.03,43796,9.31,74012.5,-7.39,-36.73,-37.09,0,*5E
1485468178.27,43797,9.31,74014.5,-7.37,-36.85,-37.21,0,*52
1485468179.51,43798,9.31,74012.0,-7.39,-36.67,-37.03,0,*5F
1485468180.74,43799,9.31,74012.3,-7.37,-36.73,-36.91,0,*5F
1485468182.03,43800,9.31,74014.5,-7.39,-36.91,-37.09,0,*52
1485468183.26,43801,9.31,74012.8,-7.37,-37.09,-37.27,0,*51
1485468184.5,43802,9.31,74010.3,-7.37,-36.85,-37.09,0,*5B
1485468185.74,43803,9.31,74008.5,-7.37,-36.67,-36.91,0,*56
1485468186.98,43804,9.31,74014.3,-7.39,-36.85,-37.03,0,*59
1485468188.24,43805,9.31,74012.5,-7.39,-36.73,-37.09,0,*5B
1485468189.48,43806,9.31,74016.5,-7.39,-36.73,-37.03,0,*52
1485468190.72,43807,9.31,74014.8,-7.37,-36.85,-37.09,0,*5E
1485468191.93,43808,9.31,74012.8,-7.37,-36.73,-37.03,0,*52
1485468193.14,43809,9.31,74014.5,-7.37,-36.73,-37.03,0,*53
1485468194.38,43810,9.31,74012.5,-7.37,-36.85,-37.09,0,*58
1485468195.62,43811,9.31,74008.8,-7.37,-37.03,-37.09,0,*56
1485468196.88,43812,9.31,74012.0,-7.37,-36.91,-37.09,0,*5F
1485468198.14,43813,9.31,74010.0,-7.39,-37.03,-37.09,0,*5A
1485468199.38,43814,9.31,74014.5,-7.37,-37.03,-37.09,0,*53
1485468200.66,43815,9.31,74008.5,-7.39,-36.91,-37.09,0,*56
1485468201.9,43816,9.31,74010.5,-7.37,-36.85,-37.09,0,*5E
1485468203.16,43817,9.31,74014.0,-7.37,-36.91,-37.09,0,*5A
1485468204.4,43818,9.31,74012.8,-7.37,-37.03,-37.09,0,*5F
1485468205.66,43819,9.31,74012.0,-7.39,-36.85,-37.09,0,*5F
1485468206.9,43820,9.31,74012.0,-7.39,-37.03,-37.27,0,*56
1485468208.16,43821,9.31,74006.8,-7.39,-37.21,-37.45,0,*53
1485468209.45,43822,9.31,74014.8,-7.39,-37.21,-37.39,0,*5B
1485468210.72,43823,9.31,74014.5,-7.37,-37.09,-37.21,0,*57
1485468211.98,43824,9.31,74016.8,-7.39,-37.03,-37.21,0,*54
1485468213.25,43825,9.31,74014.3,-7.39,-37.03,-37.21,0,*55
1485468214.51,43826,9.31,74010.5,-7.39,-37.09,-37.27,0,*5A
1485468215.74,43827,9.31,74018.0,-7.39,-37.27,-37.27,0,*57
1485468217.03,43828,9.31,74016.0,-7.39,-37.09,-37.21,0,*52
1485468218.29,43829,9.31,74012.0,-7.39,-37.03,-37.21,0,*59
1485468219.58,43830,9.31,74014.5,-7.39,-37.09,-37.09,0,*51
1485468220.87,43831,9.31,74014.0,-7.39,-36.91,-37.09,0,*50
1485468222.13,43832,9.31,74010.8,-7.39,-37.09,-37.27,0,*5F
1485468223.37,43833,9.31,74008.8,-7.39,-36.73,-37.03,0,*54
1485468224.66,43834,9.31,74010.3,-7.39,-36.91,-37.21,0,*5F
1485468225.93,43835,9.31,74010.8,-7.39,-36.85,-37.21,0,*5B
1485468227.19,43836,9.31,74010.3,-7.39,-37.03,-37.09,0,*5D
1485468228.48,43837,9.31,74012.5,-7.39,-36.91,-37.09,0,*56
1485468229.74,43838,9.31,74008.0,-7.39,-36.91,-37.03,0,*53
1485468230.98,43839,9.31,74008.5,-7.37,-36.85,-37.09,0,*53
1485468232.24,43840,9.31,74008.3,-7.39,-37.03,-37.09,0,*5C
1485468233.5,43841,9.31,74010.0,-7.39,-37.09,-37.27,0,*5B
1485468234.76,43842,9.31,74008.3,-7.43,-37.09,-37.27,0,*55
1485468236.03,43843,9.31,74014.5,-7.39,-37.03,-37.21,0,*55
1485468237.29,43844,9.31,74010.0,-7.39,-37.03,-37.09,0,*58
1485468238.55,43845,9.31,74008.3,-7.39,-37.03,-37.21,0,*53
1485468239.84,43846,9.31,74010.5,-7.39,-36.91,-37.09,0,*50
1485468241.13,43847,9.31,74006.0,-7.39,-37.09,-37.09,0,*51
1485468242.42,43848,9.31,74008.5,-7.39,-36.91,-37.09,0,*5E
1485468243.68,43849,9.31,74010.0,-7.39,-36.91,-37.03,0,*55
1485468244.94,43850,9.31,74010.3,-7.39,-36.85,-37.09,0,*52
1485468246.21,43851,9.31,74014.0,-7.39,-37.03,-37.09,0,*5C
1485468247.49,43852,9.31,74008.5,-7.39,-36.91,-37.09,0,*55
1485468248.78,43853,9.31,74008.3,-7.39,-36.91,-37.09,0,*54
1485468250.07,43854,9.31,74008.5,-7.39,-37.09,-37.21,0,*59
1485468251.34,43855,9.31,74008.8,-7.37,-37.09,-37.21,0,*56
1485468252.58,43856,9.31,74008.3,-7.39,-36.85,-37.03,0,*5E
1485468253.84,43857,9.31,74006.0,-7.39,-36.85,-37.09,0,*55
1485468255.1,43858,9.31,74014.3,-7.39,-37.03,-37.21,0,*5F
1485468256.37,43859,9.31,74016.3,-7.39,-37.03,-37.21,0,*5E
1485468257.63,43860,9.31,74010.8,-7.39,-37.03,-37.21,0,*54
1485468258.87,43861,9.31,74008.3,-7.39,-36.85,-37.03,0,*5A
1485468260.11,43862,9.31,74010.5,-7.37,-37.03,-37.21,0,*58
1485468261.4,43863,9.31,74010.0,-7.39,-36.91,-37.09,0,*57
1485468262.66,43864,9.31,74010.8,-7.39,-36.85,-36.91,0,*55
1485468263.92,43865,9.31,74006.8,-7.39,-36.85,-37.09,0,*54
1485468265.16,43866,9.31,74010.0,-7.37,-37.03,-37.21,0,*5C
1485468266.42,43867,9.31,74010.8,-7.37,-37.09,-37.21,0,*57
1485468267.69,43868,9.31,74008.0,-7.43,-37.09,-37.27,0,*5D
1485468268.98,43869,9.31,74008.8,-7.39,-37.09,-37.21,0,*57
1485468270.21,43870,9.31,74008.0,-7.39,-37.03,-37.27,0,*53
1485468271.47,43871,9.31,74012.5,-7.39,-37.03,-37.21,0,*54
1485468272.76,43872,9.31,74014.8,-7.39,-37.09,-37.21,0,*5D
1485468274.03,43873,9.31,74010.8,-7.39,-36.85,-37.09,0,*53
1485468275.29,43874,9.31,74008.5,-7.39,-36.91,-37.03,0,*5B
1485468276.55,43875,9.31,74012.3,-7.39,-36.91,-37.03,0,*5A
1485468277.79,43876,9.31,74010.0,-7.39,-36.85,-37.03,0,*5C
1485468279.05,43877,9.31,74012.0,-7.39,-37.09,-37.27,0,*5E
1485468280.31,43878,9.31,74010.8,-7.39,-36.85,-36.91,0,*58
1485468281.58,43879,9.31,74008.3,-7.39,-36.91,-37.03,0,*56
1485468282.81,43880,9.31,74008.0,-7.37,-37.03,-37.09,0,*5E
1485468284.1,43881,9.31,74012.5,-7.39,-37.09,-37.21,0,*51
1485468285.34,43882,9.31,74012.3,-7.37,-36.85,-36.91,0,*53
1485468286.6,43883,9.31,74008.8,-7.37,-37.09,-37.09,0,*57
1485468287.89,43884,9.31,74010.5,-7.39,-37.09,-37.21,0,*54
1485468289.19,43885,9.31,74012.0,-7.39,-37.21,-37.21,0,*5F
1485468290.48,43886,9.31,74014.8,-7.39,-37.09,-37.21,0,*56
1485468291.77,43887,9.31,74008.3,-7.39,-37.09,-37.21,0,*57
1485468293.06,43888,9.31,74010.5,-7.39,-37.09,-37.21,0,*58
1485468294.35,43889,9.31,74014.0,-7.39,-37.09,-37.21,0,*59
1485468295.61,43890,9.31,74010.5,-7.39,-37.03,-37.21,0,*5B
1485468296.87,43891,9.31,74014.5,-7.39,-37.03,-37.21,0,*5A
1485468298.14,43892,9.31,74008.8,-7.39,-37.03,-37.21,0,*59
1485468299.43,43893,9.31,74008.5,-7.39,-36.91,-37.09,0,*58
1485468300.69,43894,9.31,74008.0,-7.39,-36.91,-37.03,0,*55
1485468301.95,43895,9.31,74010.0,-7.39,-37.03,-37.09,0,*54
1485468303.19,43896,9.31,74004.3,-7.39,-36.85,-37.03,0,*52
1485468304.43,43897,9.31,74012.3,-7.43,-37.15,-37.15,0,*51
1485468305.69,43898,9.31,74008.3,-7.39,-37.39,-37.57,0,*5B
1485468306.95,43899,9.31,74008.0,-7.39,-37.03,-37.09,0,*58
1485468308.22,43900,9.31,74008.3,-7.39,-37.09,-37.27,0,*5F
1485468309.51,43901,9.31,74008.0,-7.39,-37.09,-37.21,0,*58
1485468310.8,43902,9.31,74016.8,-7.39,-37.09,-37.21,0,*5B
1485468312.06,43903,9.31,74014.5,-7.39,-36.91,-37.03,0,*5A
1485468313.32,43904,9.31,74012.3,-7.39,-36.73,-36.91,0,*5B
1485468314.56,43905,9.31,74008.3,-7.43,-37.27,-37.27,0,*5B
1485468315.79,43906,9.31,74010.8,-7.43,-37.33,-37.33,0,*58
1485468317.02,43907,9.31,74006.5,-7.45,-37.03,-37.21,0,*5F
1485468318.31,43908,9.31,74004.5,-7.39,-36.91,-37.09,0,*5B
1485468319.61,43909,9.31,74008.3,-7.39,-37.21,-37.39,0,*53
1485468320.84,43910,9.31,74008.0,-7.43,-37.27,-37.33,0,*5A
1485468322.08,43911,9.31,74004.5,-7.43,-37.27,-37.33,0,*5B
1485468323.34,43912,9.31,74004.8,-7.43,-37.45,-37.51,0,*58
1485468324.61,43913,9.31,74008.3,-7.43,-37.45,-37.63,0,*58
1485468325.84,43914,9.31,74010.0,-7.43,-37.27,-37.33,0,*5E
1485468327.05,43915,9.31,74006.3,-7.45,-37.15,-37.27,0,*5D
1485468328.29,43916,9.31,74006.8,-7.43,-36.97,-37.15,0,*52
1485468329.56,43917,9.31,74010.5,-7.43,-36.97,-37.09,0,*5E
1485468330.85,43918,9.31,74010.0,-7.43,-36.91,-37.09,0,*57
1485468332.08,43919,9.31,74008.0,-7.43,-37.15,-37.33,0,*52
1485468333.34,43920,9.31,74004.3,-7.45,-37.51,-37.69,0,*51
1485468334.58,43921,9.31,74006.5,-7.43,-36.97,-37.15,0,*56
1485468335.82,43922,9.31,74008.5,-7.45,-37.03,-37.21,0,*58
1485468337.09,43923,9.31,74008.3,-7.45,-37.21,-37.21,0,*59
1485468338.32,43924,9.31,74006.5,-7.43,-37.33,-37.33,0,*58
1485468339.55,43925,9.31,74004.0,-7.43,-37.27,-37.45,0,*5D
1485468340.79,43926,9.31,74010.0,-7.45,-37.21,-37.33,0,*5F
1485468342.05,43927,9.31,74004.8,-7.43,-37.09,-37.27,0,*57
1485468343.29,43928,9.31,74010.3,-7.45,-37.21,-37.33,0,*51
1485468344.52,43929,9.31,74008.0,-7.45,-37.33,-37.39,0,*59
1485468345.76,43930,9.31,74008.0,-7.45,-37.33,-37.39,0,*51
1485468346.97,43931,9.31,74010.5,-7.45,-37.15,-37.33,0,*5E
1485468348.21,43932,9.31,74010.3,-7.45,-37.03,-37.21,0,*59
1485468349.44,43933,9.31,74008.0,-7.45,-37.15,-37.21,0,*5F
1485468350.65,43934,9.31,74010.5,-7.45,-37.33,-37.33,0,*5F
1485468351.88,43935,9.31,74008.8,-7.43,-37.27,-37.27,0,*58
1485468353.12,43936,9.31,74010.0,-7.43,-37.27,-37.33,0,*5E
1485468354.38,43937,9.31,74012.0,-7.45,-37.39,-37.51,0,*52
1485468355.59,43938,9.31,74012.3,-7.45,-37.15,-37.33,0,*57
1485468356.83,43939,9.31,74010.0,-7.45,-37.03,-37.21,0,*52
1485468358.09,43940,9.31,74010.0,-7.43,-37.09,-37.15,0,*57
1485468359.3,43941,9.31,74010.5,-7.45,-37.15,-37.33,0,*59
1485468360.54,43942,9.31,74012.5,-7.45,-37.03,-37.21,0,*5E
1485468361.77,43943,9.31,74010.0,-7.45,-37.33,-37.39,0,*55
1485468363.02,43944,9.31,74014.3,-7.43,-36.97,-37.15,0,*55
1485468364.23,43945,9.31,74014.0,-7.45,-37.03,-37.15,0,*5E
1485468365.47,43946,9.31,74012.5,-7.45,-37.03,-37.21,0,*5A
1485468366.68,43947,9.31,74012.8,-7.45,-36.85,-37.15,0,*53
1485468367.97,43948,9.31,74014.8,-7.43,-36.91,-37.09,0,*52
1485468369.24,43949,9.31,74008.3,-7.43,-37.09,-37.15,0,*5E
1485468370.51,43950,9.31,74008.0,-7.45,-37.21,-37.39,0,*54
1485468371.75,43951,9.31,74010.5,-7.45,-37.21,-37.57,0,*5D
1485468372.95,43952,9.31,74010.0,-7.45,-37.33,-37.33,0,*5F
1485468374.19,43953,9.31,74012.3,-7.43,-37.27,-37.45,0,*5C
1485468375.39,43954,9.31,74016.3,-7.45,-37.33,-37.45,0,*58
1485468376.62,43955,9.31,74014.5,-7.45,-37.51,-37.57,0,*5E
1485468377.83,43956,9.31,74004.8,-7.45,-37.33,-37.33,0,*5B
1485468379.07,43957,9.31,74014.0,-7.45,-37.33,-37.39,0,*50
1485468380.27,43958,9.31,74006.5,-7.45,-37.15,-37.33,0,*51
1485468381.48,43959,9.31,74008.8,-7.45,-37.33,-37.57,0,*56
1485468382.72,43960,9.31,74012.0,-7.45,-37.21,-37.33,0,*5D
1485468383.95,43961,9.31,74014.0,-7.45,-37.39,-37.33,0,*55
1485468385.22,43962,9.31,74010.8,-7.47,-37.33,-37.39,0,*54
1485468386.46,43963,9.31,74010.5,-7.45,-37.21,-37.33,0,*5E
1485468387.75,43964,9.31,74008.3,-7.47,-37.39,-37.51,0,*56
1485468389.04,43965,9.31,74010.8,-7.47,-37.39,-37.39,0,*59
1485468390.25,43966,9.31,74012.0,-7.45,-37.15,-37.33,0,*5C
1485468391.49,43967,9.31,74010.5,-7.47,-37.15,-37.33,0,*5F
1485468392.72,43968,9.31,74010.3,-7.47,-37.03,-37.33,0,*57
1485468394.0,43969,9.31,74012.3,-7.49,-37.21,-37.39,0,*52
1485468395.24,43970,9.31,74008.5,-7.49,-37.27,-37.39,0,*5C
1485468396.5,43971,9.31,74004.3,-7.47,-37.03,-37.21,0,*5C
1485468397.77,43972,9.31,74006.8,-7.47,-37.21,-37.33,0,*5C
1485468399.04,43973,9.31,74006.8,-7.47,-37.21,-37.33,0,*5D
1485468400.28,43974,9.31,74008.3,-7.47,-36.85,-37.15,0,*51
1485468401.55,43975,9.31,74010.0,-7.47,-37.09,-37.27,0,*54
1485468402.79,43976,9.31,74010.5,-7.47,-36.85,-37.15,0,*53
1485468404.06,43977,9.31,74008.5,-7.47,-37.15,-37.39,0,*54
1485468405.3,43978,9.31,74006.8,-7.47,-37.15,-37.33,0,*51
1485468406.5,43979,9.31,74006.0,-7.45,-37.03,-37.33,0,*55
1485468407.77,43980,9.31,74010.8,-7.47,-37.33,-37.39,0,*58
1485468409.04,43981,9.31,74012.0,-7.47,-37.03,-37.21,0,*53
1485468410.28,43982,9.31,74016.8,-7.47,-36.85,-37.03,0,*5F
1485468411.52,43983,9.31,74014.5,-7.47,-37.15,-37.33,0,*55
1485468412.78,43984,9.31,74018.8,-7.47,-37.15,-37.21,0,*51
1485468414.05,43985,9.31,74012.5,-7.47,-37.15,-37.21,0,*50
1485468415.28,43986,9.31,74008.8,-7.47,-37.33,-37.33,0,*54
1485468416.58,43987,9.31,74008.0,-7.47,-37.39,-37.51,0,*5B
1485468417.86,43988,9.31,74008.3,-7.47,-37.51,-37.69,0,*51
1485468419.15,43989,9.31,74006.0,-7.47,-37.39,-37.39,0,*5B
1485468420.42,43990,9.31,74010.5,-7.47,-37.03,-37.21,0,*53
1485468421.69,43991,9.31,74008.8,-7.47,-37.15,-37.21,0,*55
1485468422.93,43992,9.31,74006.0,-7.47,-37.03,-37.15,0,*56
1485468424.2,43993,9.31,74006.0,-7.47,-37.15,-37.39,0,*5E
1485468425.47,43994,9.31,74006.5,-7.47,-37.21,-37.33,0,*54
1485468426.77,43995,9.31,74006.8,-7.47,-37.21,-37.39,0,*5F
1485468428.06,43996,9.31,74004.8,-7.47,-37.39,-37.51,0,*5B
1485468429.35,43997,9.31,74006.0,-7.47,-37.39,-37.51,0,*5A
1485468430.64,43998,9.31,74006.8,-7.47,-37.39,-37.51,0,*55
1485468431.88,43999,9.31,74004.8,-7.49,-37.39,-37.57,0,*5C
1485468433.09,44000,9.31,74008.3,-7.49,-37.27,-37.45,0,*5E
1485468434.35,44001,9.31,74008.8,-7.47,-37.33,-37.51,0,*51
1485468435.59,44002,9.31,74004.5,-7.49,-37.39,-37.45,0,*53
1485468436.79,44003,9.31,74010.5,-7.49,-37.45,-37.45,0,*59
1485468438.06,44004,9.31,74004.5,-7.47,-37.39,-37.57,0,*58
1485468439.36,44005,9.31,74006.3,-7.47,-37.21,-37.39,0,*58
1485468440.63,44006,9.31,74010.5,-7.49,-37.21,-37.39,0,*55
1485468441.9,44007,9.31,74004.8,-7.47,-37.15,-37.21,0,*54
1485468443.16,44008,9.31,74006.0,-7.47,-37.15,-37.21,0,*5B
1485468444.43,44009,9.31,74006.8,-7.47,-37.15,-37.21,0,*5A
1485468445.7,44010,9.31,74004.8,-7.49,-37.09,-37.21,0,*51
1485468446.94,44011,9.31,74008.8,-7.49,-37.21,-37.27,0,*5C
1485468448.2,44012,9.31,74006.0,-7.47,-37.33,-37.39,0,*5D
1485468449.5,44013,9.31,74002.0,-7.47,-37.21,-37.39,0,*5F
1485468450.74,44014,9.31,74002.3,-7.47,-37.15,-37.33,0,*55
1485468451.98,44015,9.31,74010.5,-7.49,-37.33,-37.39,0,*54
1485468453.22,44016,9.31,74010.5,-7.47,-37.03,-37.15,0,*54
1485468454.46,44017,9.31,74010.3,-7.47,-36.97,-37.03,0,*5E
1485468455.73,44018,9.31,74008.8,-7.47,-37.15,-37.21,0,*5A
1485468456.97,44019,9.31,74008.8,-7.47,-37.15,-37.33,0,*58
1485468458.24,44020,9.31,74008.3,-7.49,-37.09,-37.39,0,*5B
1485468459.53,44021,9.31,74010.0,-7.47,-37.39,-37.39,0,*57
1485468460.74,44022,9.31,74012.8,-7.49,-37.27,-37.45,0,*5E
1485468462.01,44023,9.31,74008.8,-7.49,-37.21,-37.39,0,*52
1485468463.22,44024,9.31,74006.3,-7.49,-37.27,-37.45,0,*58
1485468464.48,44025,9.31,74008.5,-7.47,-37.51,-37.57,0,*55
1485468465.72,44026,9.31,74010.0,-7.49,-37.27,-37.39,0,*51
1485468466.99,44027,9.31,74008.3,-7.47,-37.15,-37.21,0,*56
1485468468.26,44028,9.31,74010.5,-7.49,-37.21,-37.39,0,*59
1485468469.53,44029,9.31,74010.0,-7.49,-37.21,-37.39,0,*58
1485468470.8,44030,9.31,74008.5,-7.47,-37.39,-37.33,0,*5D
1485468472.01,44031,9.31,74008.5,-7.49,-37.45,-37.57,0,*5B
1485468473.22,44032,9.31,74010.8,-7.49,-37.27,-37.45,0,*5F
1485468474.51,44033,9.31,74012.5,-7.51,-37.09,-37.21,0,*59
1485468475.75,44034,9.31,74012.0,-7.49,-36.91,-37.27,0,*51
1485468477.02,44035,9.31,74012.0,-7.47,-37.15,-37.21,0,*55
1485468478.23,44036,9.31,74008.0,-7.49,-37.03,-37.27,0,*59
1485468479.46,44037,9.31,74010.0,-7.49,-37.39,-37.45,0,*55
1485468480.72,44038,9.31,74012.3,-7.47,-37.33,-37.39,0,*55
1485468482.0,44039,9.31,74014.3,-7.49,-37.21,-37.39,0,*59
1485468483.26,44040,9.31,74014.8,-7.49,-37.09,-37.39,0,*5D
1485468484.5,44041,9.31,74014.0,-7.47,-37.33,-37.33,0,*51
1485468485.73,44042,9.31,74008.8,-7.49,-37.39,-37.45,0,*57
1485468486.94,44043,9.31,74000.5,-7.49,-37.27,-37.27,0,*5D
1485468488.18,44044,9.31,74004.8,-7.49,-37.39,-37.45,0,*51
1485468489.44,44045,9.31,74000.8,-7.49,-37.09,-37.39,0,*58
1485468490.69,44046,9.31,74004.0,-7.47,-36.85,-37.15,0,*5E
1485468491.93,44047,9.31,74006.3,-7.49,-37.03,-37.21,0,*59
1485468493.2,44048,9.31,74000.5,-7.49,-36.91,-37.09,0,*56
1485468494.44,44049,9.31,74002.5,-7.47,-36.85,-37.03,0,*56
1485468495.65,44050,9.31,74004.5,-7.49,-36.67,-36.97,0,*50
1485468496.89,44051,9.31,74002.5,-7.47,-36.85,-37.03,0,*5F
1485468498.14,44052,9.31,74006.0,-7.49,-37.03,-37.21,0,*5D
1485468499.38,44053,9.31,74004.0,-7.47,-36.97,-37.15,0,*59
1485468500.65,44054,9.31,74012.3,-7.47,-37.21,-37.33,0,*56
1485468501.92,44055,9.31,74010.8,-7.47,-37.21,-37.33,0,*57
1485468503.18,44056,9.31,74008.0,-7.47,-37.33,-37.51,0,*53
1485468504.42,44057,9.31,74008.0,-7.47,-37.33,-37.57,0,*54
1485468505.69,44058,9.31,74008.0,-7.47,-37.33,-37.51,0,*5D
1485468506.95,44059,9.31,74006.8,-7.47,-37.33,-37.51,0,*5C
1485468508.22,44060,9.31,74004.5,-7.49,-37.21,-37.39,0,*55